Walla Walla, WA

5:19 PM PDT on July 25, 2017 (GMT -0700)
Walla Walla Regional

Weather History for KALW - July, 2013

Change the Weather History Date:

Wednesday, July 17, 2013

  Actual Average Record
Temperature  
Mean Temperature 82 °F 76 °F  
Max Temperature 96 °F 90 °F 108 °F (1960)
Min Temperature 70 °F 62 °F 51 °F (1987)
Cooling Degree Days 18 11  
Month to date cooling degree days 150  
Year to date cooling degree days 292  
Since 1 June cooling degree days 257  
Growing Degree Days 32 (Base 50)    
Moisture  
Dew Point 46 °F    
Average Humidity 30    
Maximum Humidity 55    
Minimum Humidity 12    
Precipitation  
Precipitation 0.00 in 0.02 in 0.22 in (1977)
Month to date precipitation 0.36  
Year to date precipitation 12.28  
Snow  
Snow 0.00 in 0.00 in 0.00 in (2002)
Month to date snowfall 0.0  
Year to date snowfall 6.0  
Since 1 July snowfall 0.0  
Snow Depth -    
Sea Level Pressure  
Sea Level Pressure 29.95 in    
Wind  
Wind Speed 9 mph (SW)    
Max Wind Speed 18 mph    
Max Gust Speed 24 mph    
Visibility 10 miles    
Events      
T = Trace of Precipitation, MM = Missing Value Source: NWS Daily Summary

Daily Weather History Graph

Daily Weather History Graph

Search for Another Location

Airport or City:

Trip Planner

Search our weather history database for the weather conditions in past years. The results will help you decide how hot, cold, wet, or windy it might be!

Date:

Astronomy

Jul. 17, 2013 Rise Set
Actual Time 5:19 AM PDT 8:39 PM PDT
Civil Twilight 4:42 AM PDT 9:15 PM PDT
Nautical Twilight 3:54 AM PDT 10:03 PM PDT
Astronomical Twilight 2:53 AM PDT 11:03 PM PDT
Moon 3:29 PM PDT (7/17) 12:35 AM PDT (7/17)
Length of Visible Light 16h 33m
Length of Day
15h 19m
Waxing Gibbous, 68% of the Moon is Illuminated
Jul 17
Waxing Gibbous
Jul 22
Full
Jul 29
Last Quarter
Aug 6
New
Aug 14
First Quarter

Hourly Weather History & Observations

Time (PDT) Temp. Dew Point Humidity Pressure Visibility Wind Dir Wind Speed Gust Speed Precip Events Conditions
12:53 AM 75.0 °F 53.1 °F 46% 29.81 in 10.0 mi South 6.9 mph - N/A   Clear
1:53 AM 71.1 °F 54.0 °F 55% 29.82 in 10.0 mi Calm Calm - N/A   Clear
2:53 AM 72.0 °F 52.0 °F 49% 29.84 in 10.0 mi South 9.2 mph - N/A   Clear
3:53 AM 73.0 °F 48.0 °F 41% 29.85 in 10.0 mi SSW 11.5 mph - N/A   Clear
4:53 AM 73.0 °F 46.9 °F 39% 29.90 in 10.0 mi SSW 12.7 mph - N/A   Clear
5:53 AM 70.0 °F 48.9 °F 47% 29.92 in 10.0 mi SSW 6.9 mph - N/A   Clear
6:53 AM 75.0 °F 48.0 °F 38% 29.94 in 10.0 mi SSW 10.4 mph - N/A   Clear
7:53 AM 78.1 °F 48.0 °F 35% 29.96 in 10.0 mi SSW 15.0 mph - N/A   Clear
8:53 AM 80.1 °F 48.0 °F 32% 29.99 in 10.0 mi SSW 13.8 mph - N/A   Clear
9:53 AM 84.0 °F 48.9 °F 29% 29.99 in 10.0 mi South 12.7 mph - N/A   Clear
10:53 AM 86.0 °F 51.1 °F 30% 30.00 in 10.0 mi WSW 12.7 mph 20.7 mph N/A   Clear
11:53 AM 88.0 °F 52.0 °F 29% 30.00 in 10.0 mi SW 18.4 mph 24.2 mph N/A   Clear
12:53 PM 89.1 °F 48.9 °F 25% 30.01 in 10.0 mi WSW 10.4 mph 18.4 mph N/A   Clear
1:53 PM 91.0 °F 48.0 °F 23% 30.00 in 10.0 mi West 8.1 mph 19.6 mph N/A   Clear
2:53 PM 91.0 °F 45.0 °F 20% 29.99 in 10.0 mi SSW 6.9 mph - N/A   Clear
3:53 PM 93.9 °F 41.0 °F 16% 29.99 in 10.0 mi WSW 10.4 mph - N/A   Clear
4:53 PM 95.0 °F 39.0 °F 14% 29.96 in 10.0 mi SW 13.8 mph 20.7 mph N/A   Clear
5:53 PM 95.0 °F 37.0 °F 13% 29.96 in 10.0 mi WNW 8.1 mph - N/A   Clear
6:53 PM 93.9 °F 34.0 °F 12% 29.96 in 10.0 mi West 5.8 mph - N/A   Clear
7:53 PM 91.0 °F 42.1 °F 18% 29.96 in 10.0 mi NNW 3.5 mph - N/A   Clear
8:53 PM 86.0 °F 39.0 °F 19% 29.98 in 10.0 mi WSW 4.6 mph - N/A   Clear
9:53 PM 75.9 °F 46.0 °F 35% 30.01 in 10.0 mi East 6.9 mph - N/A   Clear
10:53 PM 79.0 °F 42.1 °F 27% 30.01 in 10.0 mi South 4.6 mph - N/A   Clear
11:53 PM 77.0 °F 37.9 °F 24% 30.03 in 10.0 mi South 9.2 mph - N/A   Clear